| time (UTC) | temp F | wind direction | speed MPH | gust MPH | rain 1hr in | rain 24hr in | rain mn in | humidity % | barometer mb |
| 20260510141539 | 63 | 38 | 3.0 | 10.0 | 0.00 | 0.00 | 0.00 | 80 | 1016.4 |
| 20260510140038 | 63 | 11 | 3.0 | 6.0 | 0.00 | 0.00 | 0.00 | 83 | 1016.2 |
| 20260510134538 | 63 | 304 | 0.0 | 3.0 | 0.00 | 0.00 | 0.00 | 84 | 1016.7 |
| 20260510133037 | 62 | 309 | 1.0 | 8.0 | 0.00 | 0.00 | 0.00 | 85 | 1017.0 |
| 20260510131533 | 62 | 296 | 3.0 | 9.0 | 0.00 | 0.00 | 0.00 | 86 | 1016.6 |
| 20260510130030 | 62 | 30 | 0.0 | 0.0 | 0.00 | 0.00 | 0.00 | 88 | 1015.7 |
| 20260510124548 | 62 | 30 | 0.0 | 1.0 | 0.00 | 0.00 | 0.00 | 88 | 1015.6 |
| 20260510123043 | 61 | 30 | 0.0 | 1.0 | 0.00 | 0.00 | 0.00 | 88 | 1015.0 |
| 20260510121539 | 61 | 30 | 0.0 | 0.0 | 0.00 | 0.00 | 0.00 | 87 | 1014.5 |
| 20260510120037 | 60 | 29 | 0.0 | 1.0 | 0.00 | 0.00 | 0.00 | 87 | 1014.0 |
| 20260510114535 | 60 | 29 | 0.0 | 0.0 | 0.00 | 0.00 | 0.00 | 86 | 1013.7 |
| 20260510113039 | 60 | 29 | 0.0 | 0.0 | 0.00 | 0.00 | 0.00 | 85 | 1013.6 |
| 20260510111530 | 61 | 30 | 0.0 | 0.0 | 0.00 | 0.00 | 0.00 | 84 | 1013.4 |
| 20260510110042 | 61 | 29 | 1.0 | 2.0 | 0.00 | 0.00 | 0.00 | 84 | 1013.2 |
| 20260510104525 | 62 | 31 | 0.0 | 2.0 | 0.00 | 0.00 | 0.00 | 83 | 1012.6 |
| 20260510103025 | 62 | 32 | 0.0 | 0.0 | 0.00 | 0.00 | 0.00 | 82 | 1012.8 |
| 20260510101523 | 63 | 32 | 0.0 | 0.0 | 0.00 | 0.00 | 0.00 | 82 | 1012.7 |
| 20260510100024 | 62 | 31 | 2.0 | 4.0 | 0.00 | 0.00 | 0.00 | 83 | 1012.5 |
| 20260510094534 | 62 | 36 | 1.0 | 3.0 | 0.00 | 0.00 | 0.00 | 84 | 1012.5 |
| 20260510093023 | 62 | 42 | 1.0 | 2.0 | 0.00 | 0.00 | 0.00 | 84 | 1012.6 |
| 20260510091520 | 62 | 43 | 0.0 | 2.0 | 0.00 | 0.00 | 0.00 | 83 | 1012.1 |
| 20260510090020 | 63 | 43 | 0.0 | 0.0 | 0.00 | 0.00 | 0.00 | 82 | 1011.8 |
| 20260510084515 | 63 | 43 | 0.0 | 0.0 | 0.00 | 0.00 | 0.00 | 80 | 1011.4 |
| 20260510083013 | 64 | 43 | 0.0 | 0.0 | 0.00 | 0.00 | 0.00 | 78 | 1010.8 |
| 20260510081510 | 66 | 43 | 0.0 | 2.0 | 0.00 | 0.00 | 0.00 | 76 | 1010.8 |
| 20260510080022 | 67 | 43 | 1.0 | 2.0 | 0.00 | 0.00 | 0.00 | 75 | 1010.7 |
| 20260510074508 | 68 | 43 | 0.0 | 2.0 | 0.00 | 0.00 | 0.00 | 74 | 1010.7 |
| 20260510073007 | 68 | 36 | 1.0 | 9.0 | 0.00 | 0.00 | 0.00 | 71 | 1010.6 |
| 20260510071503 | 67 | 148 | 2.0 | 5.0 | 0.00 | 0.00 | 0.00 | 75 | 1010.7 |
| 20260510070003 | 67 | 302 | 3.0 | 5.0 | 0.00 | 0.00 | 0.00 | 76 | 1011.5 |
| 20260510064502 | 67 | 184 | 3.0 | 8.0 | 0.00 | 0.00 | 0.00 | 78 | 1009.2 |
| 20260510063058 | 66 | 150 | 1.0 | 5.0 | 0.00 | 0.00 | 0.00 | 79 | 1010.8 |
| 20260510061552 | 66 | 22 | 0.0 | 0.0 | 0.00 | 0.00 | 0.00 | 80 | 1011.9 |
| 20260510060050 | 66 | 22 | 0.0 | 0.0 | 0.00 | 0.00 | 0.00 | 80 | 1012.6 |
| 20260510054546 | 67 | 22 | 0.0 | 2.0 | 0.00 | 0.00 | 0.00 | 80 | 1012.8 |
| 20260510053051 | 67 | 22 | 0.0 | 1.0 | 0.00 | 0.00 | 0.00 | 77 | 1013.0 |
| 20260510051544 | 67 | 22 | 0.0 | 2.0 | 0.00 | 0.00 | 0.00 | 78 | 1013.0 |
| 20260510050047 | 67 | 22 | 1.0 | 3.0 | 0.00 | 0.00 | 0.00 | 77 | 1013.0 |
| 20260510044538 | 66 | 23 | 2.0 | 4.0 | 0.00 | 0.00 | 0.00 | 77 | 1013.0 |
| 20260510043035 | 65 | 103 | 0.0 | 4.0 | 0.00 | 0.00 | 0.00 | 80 | 1012.6 |
| 20260510041530 | 64 | 132 | 0.0 | 0.0 | 0.00 | 0.00 | 0.00 | 82 | 1011.8 |
| 20260510040029 | 64 | 132 | 0.0 | 0.0 | 0.00 | 0.00 | 0.00 | 82 | 1011.3 |
| 20260510034529 | 64 | 132 | 0.0 | 0.0 | 0.00 | 0.00 | 0.00 | 82 | 1011.1 |
| 20260510033037 | 64 | 132 | 0.0 | 0.0 | 0.00 | 0.00 | 0.00 | 81 | 1011.1 |
| 20260510031531 | 64 | 132 | 0.0 | 0.0 | 0.00 | 0.00 | 0.00 | 81 | 1011.2 |
| 20260510030028 | 64 | 132 | 0.0 | 0.0 | 0.00 | 0.00 | 0.00 | 79 | 1011.3 |
| 20260510024527 | 65 | 132 | 0.0 | 0.0 | 0.00 | 0.00 | 0.00 | 77 | 1010.9 |
| 20260510023026 | 66 | 132 | 0.0 | 0.0 | 0.00 | 0.00 | 0.00 | 75 | 1010.3 |
| 20260510021603 | 67 | 132 | 0.0 | 0.0 | 0.00 | 0.00 | 0.00 | 73 | 1009.7 |
| 20260510020025 | 69 | 132 | 0.0 | 0.0 | 0.00 | 0.00 | 0.00 | 70 | 1009.4 |
| 20260510014514 | 71 | 132 | 0.0 | 0.0 | 0.00 | 0.01 | 0.00 | 67 | 1009.2 |
| 20260510013101 | 74 | 132 | 0.0 | 2.0 | 0.00 | 0.01 | 0.00 | 63 | 1008.9 |
| 20260510011518 | 77 | 132 | 0.0 | 2.0 | 0.00 | 0.01 | 0.00 | 56 | 1008.6 |
| 20260510010027 | 78 | 182 | 1.0 | 4.0 | 0.00 | 0.01 | 0.00 | 50 | 1008.5 |
| 20260510004515 | 79 | 148 | 1.0 | 4.0 | 0.00 | 0.03 | 0.00 | 48 | 1008.2 |
| 20260510003041 | 80 | 161 | 1.0 | 5.0 | 0.00 | 0.03 | 0.00 | 46 | 1008.3 |
| 20260510001624 | 80 | 147 | 0.0 | 4.0 | 0.00 | 0.03 | 0.00 | 43 | 1008.2 |
| 20260510000037 | 81 | 151 | 3.0 | 6.0 | 0.00 | 0.03 | 0.00 | 39 | 1008.2 |
| 20260509234523 | 81 | 165 | 3.0 | 8.0 | 0.00 | 0.33 | 0.00 | 36 | 1008.3 |
| 20260509233128 | 82 | 192 | 2.0 | 10.0 | 0.00 | 0.33 | 0.00 | 36 | 1008.4 |
| 20260509231547 | 82 | 125 | 4.0 | 8.0 | 0.00 | 0.33 | 0.00 | 38 | 1008.5 |
| 20260509230015 | 83 | 185 | 3.0 | 6.0 | 0.00 | 0.33 | 0.00 | 35 | 1008.5 |
| 20260509224508 | 83 | 182 | 1.0 | 7.0 | 0.00 | 0.66 | 0.00 | 36 | 1008.6 |
| 20260509223027 | 83 | 122 | 3.0 | 10.0 | 0.00 | 0.66 | 0.00 | 36 | 1008.7 |
| 20260509221621 | 83 | 130 | 3.0 | 8.0 | 0.00 | 0.66 | 0.00 | 38 | 1008.8 |
| 20260509220039 | 83 | 132 | 3.0 | 9.0 | 0.00 | 0.66 | 0.00 | 38 | 1008.8 |
| 20260509214636 | 84 | 137 | 2.0 | 8.0 | 0.00 | 0.66 | 0.00 | 36 | 1008.9 |
| 20260509213003 | 84 | 148 | 3.0 | 8.0 | 0.00 | 0.66 | 0.00 | 35 | 1009.0 |
| 20260509211634 | 84 | 193 | 1.0 | 5.0 | 0.00 | 0.66 | 0.00 | 36 | 1009.2 |
| 20260509210010 | 84 | 142 | 2.0 | 8.0 | 0.00 | 0.66 | 0.00 | 42 | 1009.5 |
| 20260509204509 | 85 | 157 | 1.0 | 5.0 | 0.00 | 0.66 | 0.00 | 41 | 1009.6 |
| 20260509201522 | 83 | 205 | 3.0 | 9.0 | 0.00 | 0.66 | 0.00 | 38 | 1009.9 |
| 20260509200113 | 83 | 164 | 2.0 | 6.0 | 0.00 | 0.66 | 0.00 | 38 | 1010.1 |
| 20260509194544 | 83 | 165 | 3.0 | 10.0 | 0.00 | 0.66 | 0.00 | 38 | 1010.2 |
| 20260509193124 | 83 | 138 | 3.0 | 7.0 | 0.00 | 0.66 | 0.00 | 44 | 1010.2 |
| 20260509191514 | 83 | 144 | 3.0 | 7.0 | 0.00 | 0.66 | 0.00 | 43 | 1010.3 |
| 20260509190101 | 82 | 142 | 2.0 | 8.0 | 0.00 | 0.66 | 0.00 | 39 | 1010.2 |
| 20260509184609 | 82 | 173 | 3.0 | 7.0 | 0.00 | 0.66 | 0.00 | 47 | 1010.3 |
| 20260509183100 | 82 | 185 | 3.0 | 7.0 | 0.00 | 0.66 | 0.00 | 47 | 1010.4 |
| 20260509181528 | 81 | 195 | 1.0 | 8.0 | 0.00 | 0.66 | 0.00 | 57 | 1010.7 |
| 20260509180126 | 81 | 115 | 4.0 | 8.0 | 0.00 | 0.66 | 0.00 | 55 | 1010.9 |
| 20260509174507 | 81 | 280 | 1.0 | 5.0 | 0.00 | 0.66 | 0.00 | 59 | 1011.1 |
| 20260509173007 | 79 | 153 | 2.0 | 7.0 | 0.00 | 0.66 | 0.00 | 61 | 1011.2 |
| 20260509171534 | 78 | 168 | 1.0 | 4.0 | 0.00 | 0.66 | 0.00 | 65 | 1011.3 |
| 20260509170111 | 77 | 168 | 2.0 | 5.0 | 0.00 | 0.66 | 0.00 | 68 | 1011.3 |
| 20260509164506 | 77 | 184 | 2.0 | 5.0 | 0.00 | 0.66 | 0.00 | 68 | 1011.5 |
| 20260509163009 | 76 | 176 | 1.0 | 5.0 | 0.00 | 0.66 | 0.00 | 73 | 1011.6 |
| 20260509161606 | 74 | 182 | 1.0 | 5.0 | 0.00 | 0.66 | 0.00 | 77 | 1011.4 |
| 20260509160045 | 72 | 183 | 1.0 | 5.0 | 0.00 | 0.66 | 0.00 | 78 | 1011.2 |
| 20260509154546 | 71 | 170 | 2.0 | 4.0 | 0.00 | 0.66 | 0.00 | 82 | 1011.1 |
| 20260509153052 | 69 | 171 | 0.0 | 4.0 | 0.00 | 0.66 | 0.00 | 85 | 1011.2 |
| 20260509151531 | 67 | 211 | 2.0 | 3.0 | 0.00 | 0.66 | 0.00 | 90 | 1011.4 |
| 20260509150003 | 65 | 289 | 0.0 | 6.0 | 0.00 | 0.66 | 0.00 | 93 | 1011.4 |
| 20260509144627 | 64 | 155 | 2.0 | 6.0 | 0.00 | 0.66 | 0.00 | 94 | 1011.4 |